Regional Weather Roundup
Issued by NWS

Home | Current Version | Previous Version | Text Only | Print | Product List | Glossary Off
Versions: 1 2 3 4 5 6 7 8 9 10 11 12 13 14 15 16 17 18 19 20 21 22 23 24 25 26 27 28 29 30 31 32 33 34 35 36 37 38 39 40 41 42 43 44 45 46 47 48 49 50

000
ASUS43 KMKX 062321
RWRWI

WISCONSIN REGIONAL WEATHER ROUNDUP
NATIONAL WEATHER SERVICE MILWAUKEE/SULLIVAN WI
500 PM CST FRI MAR 06 2015

NOTE: "FAIR" INDICATES FEW OR NO CLOUDS BELOW 12,000 FEET WITH NO
SIGNIFICANT WEATHER AND/OR OBSTRUCTIONS TO VISIBILITY.

WIZ001-002-006>008-014>016-023>028-070000-
NORTHWEST WISCONSIN

CITY           SKY/WX    TMP DP  RH WIND       PRES   REMARKS
SUPERIOR ARPT  CLEAR     34  12  41 W13       29.99S WCI  25
ASHLAND        CLEAR     33  11  39 W13       29.98R WCI  24
HAYWARD        CLEAR     33  11  39 W6        29.97S WCI  28
SIREN          CLEAR     32  14  46 W10       30.02R WCI  24
CUMBERLAND     CLEAR     28  14  54 W6        30.00S WCI  22
RICE LAKE      CLEAR     30  14  50 W6        30.02S WCI  24
CHETEK         CLEAR     31  15  50 W6        30.01S WCI  26
LADYSMITH      CLEAR     30  13  50 W6        30.01R WCI  24
EAU CLAIRE     CLEAR     32  17  54 W8        30.02S WCI  25
MENOMONIE      CLEAR     34  19  54 W9        30.03R WCI  26
NEW RICHMOND   SUNNY     32  15  50 W12       30.04R WCI  23
OSCEOLA        MOSUNNY   32  17  52 W3        30.06S
$$

WIZ003>005-009-010-017-018-070000-
NORTH CENTRAL WISCONSIN

CITY           SKY/WX    TMP DP  RH WIND       PRES   REMARKS
MANITOWISH WTR CLEAR     28  10  46 W10       29.91S WCI  19
ARBOR VITAE    CLEAR     29  11  45 W7        29.92R WCI  22
WOODRUFF       CLEAR     29  11  45 W7        29.92R WCI  22
RHINELANDER    CLEAR     26  10  50 W10       29.93R WCI  16
EAGLE RIVER    CLEAR     27   7  42 W13       29.91S WCI  17
LAND O LAKES   CLEAR     29   8  41 W8        29.91R WCI  21
PHILLIPS       CLEAR     29  11  48 W6        29.95R WCI  22
TOMAHAWK       CLEAR     28  11  48 W9        29.95S WCI  20
MEDFORD        CLEAR     27  13  55 W10       29.97S WCI  18
MERRILL        CLEAR     28  13  53 W13       29.96F WCI  18
$$

WIZ029-030-035-036-043>047-070000-
CENTRAL WISCONSIN

CITY           SKY/WX    TMP DP  RH WIND       PRES   REMARKS
WAUSAU         CLEAR     28  13  53 W9        29.97S WCI  19
MOSINEE        CLEAR     28  14  54 W15       29.99S WCI  17
MARSHFIELD     CLEAR     31  15  52 W8        29.99S WCI  23
STEVENS POINT  CLEAR     31  13  48 SW10G18   29.99F WCI  22
WAUPACA        CLEAR     34  14  43 SW12      30.01S WCI  25
WAUTOMA        CLEAR     31  15  51 SW12      30.03S WCI  22
WISC RAPIDS    CLEAR     32  14  47 SW13      30.02S WCI  22
CAMP DOUGLAS   PTCLDY    32  19  59 SW16      30.03S WCI  21
$$

WIZ011>013-019>022-031-037>040-048>050-070000-
NORTHEAST WISCONSIN

CITY           SKY/WX    TMP DP  RH WIND       PRES   REMARKS
ANTIGO         CLEAR     25  13  58 W15G21    29.95S WCI  13
SHAWANO        CLEAR     33  14  45 SW9       29.99S WCI  25
OCONTO         CLEAR     30  14  50 SW12G18   29.99R WCI  21
STURGEON BAY   CLEAR     25  12  58 SW16      30.00S WCI  12
GREEN BAY      CLEAR     29  15  56 SW10      30.00F WCI  20
MANITOWOC      CLOUDY    29  16  58 SW21G26   30.03F WCI  16
APPLETON       CLEAR     30  12  47 SW18      30.01F WCI  18
CLINTONVILLE   CLEAR     32  14  47 W9        29.99S WCI  24
OSHKOSH        CLEAR     27  15  61 SW13G21   30.02F WCI  16
$$

WIZ032>034-041-042-053>061-070000-
SOUTHWEST WISCONSIN

CITY           SKY/WX    TMP DP  RH WIND       PRES   REMARKS
LA CROSSE      CLEAR     34  22  61 SW10      30.06F WCI  26
SPARTA         CLEAR     33  18  53 SW8G17    30.06S WCI  26
VIROQUA        CLEAR     30  19  63 SW9       30.05S WCI  22
BOSCOBEL       CLEAR     33  20  58 SW10      30.10S WCI  25
PRAIRIE DU CHI CLEAR     34  20  57 SW6       30.10R WCI  29
PLATTEVILLE    CLEAR     30  21  68 S12       30.10S WCI  20
$$

WIZ056-057-062-063-064-067-068-070000-
SOUTH CENTRAL WISCONSIN

CITY           SKY/WX    TMP DP  RH WIND       PRES   REMARKS
REEDSBURG      CLEAR     30  17  59 SW9       30.06R WCI  22
BARABOO/DELLS  CLEAR     29  15  56 SW14      30.04S WCI  19
LONE ROCK      CLEAR     31  17  56 SW14G22   30.09F WCI  21
MINERAL POINT  CLEAR     32  19  59 SW13      30.07S WCI  22
MADISON        CLEAR     29  15  56 SW8G16    30.08F WCI  21
MIDDLETON      CLEAR     31  15  51 SW10G18   30.07F WCI  22
WATERTOWN      CLEAR     26  16  66 SW13G20   30.09S WCI  15
MONROE         CLEAR     30  21  69 SW15G21   30.09F WCI  19
JANESVILLE     CLEAR     28  18  64 SW13      30.11F WCI  18
$$

WIZ051-052-058>065-066-070>072-070000-
SOUTHEAST WISCONSIN

CITY           SKY/WX    TMP DP  RH WIND       PRES   REMARKS
MILWAUKEE      PTCLDY    26  14  60 SW18G26   30.11F WCI  13
WAUKESHA       CLEAR     25  12  58 SW15G29   30.11S WCI  12
MILWAUKEE/TIMM MOCLDY    27  12  54 SW17G26   30.10F WCI  14
RACINE         CLEAR     26  14  60 SW17G25   30.13F WCI  13
BURLINGTON     CLEAR     25  16  68 SW20      30.12S WCI  11
KENOSHA        CLEAR     26  16  65 SW16G28   30.12F WCI  14
FOND DU LAC    CLEAR     26  13  57 SW17G25   30.04F WCI  13
SHEBOYGAN      CLOUDY    27  15  61 SW15      30.04F WCI  15
WEST BEND      CLOUDY    27  14  59 SW13G22   30.06S WCI  16
JUNEAU         CLEAR     25  15  65 S20       30.08S WCI  11
$$

LSZ147-162-070000-
LAKE SUPERIOR

STATION/POSITION TIME  TEMP    WIND        PRES    WAVE
                       AIR SEA DIR/SP/G            HT/PER
                 (UTC) (F)     (DEG/KT/KT) (MB)    (FT/S)
DEVILS ISLAND    2300   30     250/ 14/ 18 1015.0R
PORT WING        2200   33     240/ 10/ 15 1014.9S
SAXON HARBOR     2240   34     270/  4/ 12 1014.9R
$$

LMZ867-665-643>646-070000-
LAKE MICHIGAN

STATION/POSITION TIME  TEMP    WIND        PRES    WAVE
                       AIR SEA DIR/SP/G            HT/PER
                 (UTC) (F)     (DEG/KT/KT) (MB)    (FT/S)
NORTHPORT PIER   2300   28     170/  4/ 17 1014.9S
SISTER BAY       2243   29     210/ 19/ 23   N/A
KEWAUNEE LAKESHO 2200   28     240/  9/ 15 1015.9F
SHEBOYGAN LAKESH 2300   27     210/ 17/ 20 1019.0F
PORT WASHINGTON  2240   29     220/  8/ 16 1019.3F
MILWAUKEE LAKESH 2300   28     230/ 16/ 19   N/A
KENOSHA   LAKESH 2300   27     220/ 17/ 25 1020.3F
$$

TC  - TEMPERATURE IN CELSIUS
VSB - VISIBILITY IN STATUTE MILES
WCI - WIND CHILL INDEX
HX  - HEAT INDEX




USA.gov is the U.S. government's official web portal to all federal, state and local government web resources and services.